• în România
  • Lista ţărilor
  • Pe 7 zile
  • Temperatura apei
  • Hartă satelitară
  • Meteo pe hartă
  • Widget-uri
  • user-avatar
    Intrare

    Meteo pe oră la Quito

    Astăzi, 21 Ianuarie, Duminică

    Timp Temperatura Precipitaţii Vânt Presiune Umiditate
    00:00 +17°C° 1,1 mm 2 m/s 621 mmHg 96%
    01:00 +16°C° 1,1 mm 2 m/s 621 mmHg 96%
    02:00 +16°C° 0,7 mm 2 m/s 621 mmHg 97%
    03:00 +16°C° 0,7 mm 2 m/s 621 mmHg 97%
    04:00 +16°C° 0,7 mm 2 m/s 621 mmHg 97%
    05:00 +16°C° 0,2 mm 2 m/s 621 mmHg 97%
    06:00 +16°C° 0,2 mm 2 m/s 621 mmHg 96%
    07:00 +16°C° 0,2 mm 2 m/s 621 mmHg 96%
    08:00 +18°C° 0 mm 2 m/s 622 mmHg 89%
    09:00 +19°C° 0 mm 2 m/s 623 mmHg 83%
    10:00 +21°C° 0 mm 2 m/s 623 mmHg 77%
    11:00 +23°C° 0,1 mm 2 m/s 623 mmHg 72%
    12:00 +24°C° 0,1 mm 3 m/s 623 mmHg 67%
    13:00 +25°C° 0,1 mm 3 m/s 622 mmHg 63%
    14:00 +24°C° 0,3 mm 3 m/s 622 mmHg 65%
    15:00 +24°C° 0,3 mm 3 m/s 622 mmHg 68%
    16:00 +24°C° 0,3 mm 3 m/s 621 mmHg 70%
    17:00 +21°C° 0,7 mm 3 m/s 621 mmHg 78%
    18:00 +19°C° 0,7 mm 2 m/s 621 mmHg 86%
    19:00 +18°C° 0,7 mm 2 m/s 621 mmHg 94%
    20:00 +17°C° 0,1 mm 2 m/s 621 mmHg 95%
    21:00 +17°C° 0,1 mm 2 m/s 621 mmHg 95%
    22:00 +16°C° 0,1 mm 2 m/s 622 mmHg 96%
    23:00 +16°C° 0 mm 2 m/s 621 mmHg 97%

    Mâine, 22 Ianuarie, Luni

    Timp Temperatura Precipitaţii Vânt Presiune Umiditate
    00:00 +16°C° 0 mm 1 m/s 621 mmHg 97%
    01:00 +16°C° 0 mm 1 m/s 621 mmHg 97%
    02:00 +16°C° 0,1 mm 1 m/s 621 mmHg 97%
    03:00 +15°C° 0,1 mm 1 m/s 621 mmHg 97%
    04:00 +15°C° 0,1 mm 1 m/s 621 mmHg 97%
    05:00 +16°C° 0 mm 1 m/s 621 mmHg 96%
    06:00 +16°C° 0 mm 1 m/s 622 mmHg 95%
    07:00 +16°C° 0 mm 1 m/s 622 mmHg 95%
    08:00 +19°C° 0,1 mm 1 m/s 623 mmHg 85%
    09:00 +20°C° 0,1 mm 2 m/s 624 mmHg 75%
    10:00 +23°C° 0,1 mm 2 m/s 624 mmHg 66%
    11:00 +24°C° 0,3 mm 2 m/s 624 mmHg 64%
    12:00 +24°C° 0,3 mm 2 m/s 623 mmHg 62%
    13:00 +25°C° 0,3 mm 2 m/s 623 mmHg 61%
    14:00 +24°C° 0,8 mm 2 m/s 622 mmHg 65%
    15:00 +24°C° 0,8 mm 2 m/s 622 mmHg 70%
    16:00 +23°C° 0,8 mm 2 m/s 621 mmHg 75%
    17:00 +22°C° 1,1 mm 1 m/s 621 mmHg 80%
    18:00 +20°C° 1,1 mm 1 m/s 621 mmHg 86%
    19:00 +18°C° 1,1 mm 1 m/s 621 mmHg 91%
    20:00 +18°C° 0,6 mm 1 m/s 621 mmHg 92%
    21:00 +18°C° 0,6 mm 1 m/s 622 mmHg 93%
    22:00 +16°C° 0,6 mm 1 m/s 622 mmHg 94%
    23:00 +16°C° 0,2 mm 1 m/s 622 mmHg 95%

    Poimâine, 23 Ianuarie, Marţi

    Timp Temperatura Precipitaţii Vânt Presiune Umiditate
    00:00 +16°C° 0,2 mm 1 m/s 621 mmHg 96%
    01:00 +16°C° 0,2 mm 1 m/s 621 mmHg 96%
    02:00 +16°C° 0,2 mm 1 m/s 620 mmHg 96%
    03:00 +15°C° 0,2 mm 1 m/s 620 mmHg 96%
    04:00 +15°C° 0,2 mm 1 m/s 620 mmHg 96%
    05:00 +15°C° 0,2 mm 1 m/s 620 mmHg 95%
    06:00 +16°C° 0,2 mm 1 m/s 621 mmHg 94%
    07:00 +16°C° 0,2 mm 1 m/s 621 mmHg 93%
    08:00 +18°C° 0,2 mm 1 m/s 622 mmHg 90%
    09:00 +19°C° 0,2 mm 1 m/s 622 mmHg 86%
    10:00 +20°C° 0,2 mm 1 m/s 622 mmHg 82%
    11:00 +21°C° 0,1 mm 1 m/s 622 mmHg 75%
    12:00 +22°C° 0,1 mm 1 m/s 622 mmHg 69%
    13:00 +23°C° 0,1 mm 1 m/s 621 mmHg 62%
    14:00 +23°C° 0 mm 1 m/s 621 mmHg 62%
    15:00 +23°C° 0 mm 1 m/s 620 mmHg 63%
    16:00 +24°C° 0 mm 1 m/s 620 mmHg 63%
    17:00 +22°C° 0 mm 1 m/s 620 mmHg 68%
    18:00 +20°C° 0 mm 1 m/s 620 mmHg 73%
    19:00 +19°C° 0 mm 1 m/s 620 mmHg 78%
    20:00 +18°C° 0,3 mm 1 m/s 620 mmHg 82%
    21:00 +18°C° 0,3 mm 1 m/s 621 mmHg 86%
    22:00 +16°C° 0,3 mm 1 m/s 621 mmHg 90%
    23:00 +16°C° 1,2 mm 1 m/s 621 mmHg 92%

    24 Ianuarie, Miercuri

    Timp Temperatura Precipitaţii Vânt Presiune Umiditate
    00:00 +16°C° 1,2 mm 1 m/s 620 mmHg 94%
    01:00 +16°C° 1,2 mm 1 m/s 620 mmHg 96%
    02:00 +16°C° 1,2 mm 1 m/s 620 mmHg 96%
    03:00 +16°C° 1,2 mm 1 m/s 620 mmHg 96%
    04:00 +16°C° 1,2 mm 1 m/s 620 mmHg 96%
    05:00 +16°C° 1,1 mm 1 m/s 620 mmHg 96%
    06:00 +16°C° 1,1 mm 1 m/s 621 mmHg 96%
    07:00 +16°C° 1,1 mm 1 m/s 621 mmHg 95%
    08:00 +16°C° 0,8 mm 2 m/s 622 mmHg 95%
    09:00 +16°C° 0,8 mm 2 m/s 622 mmHg 94%
    10:00 +16°C° 0,8 mm 2 m/s 622 mmHg 93%
    11:00 +17°C° 0,2 mm 2 m/s 622 mmHg 88%
    12:00 +18°C° 0,2 mm 3 m/s 621 mmHg 82%
    13:00 +19°C° 0,2 mm 3 m/s 621 mmHg 77%
    14:00 +19°C° 0 mm 3 m/s 621 mmHg 74%
    15:00 +20°C° 0 mm 3 m/s 620 mmHg 71%
    16:00 +20°C° 0 mm 3 m/s 620 mmHg 69%
    17:00 +19°C° 0 mm 2 m/s 620 mmHg 73%
    18:00 +18°C° 0 mm 2 m/s 620 mmHg 78%
    19:00 +18°C° 0 mm 1 m/s 621 mmHg 82%
    20:00 +18°C° 0 mm 1 m/s 621 mmHg 82%
    21:00 +18°C° 0 mm 1 m/s 621 mmHg 82%
    22:00 +18°C° 0 mm 1 m/s 622 mmHg 82%
    23:00 +16°C° 0 mm 1 m/s 621 mmHg 83%

    25 Ianuarie, Joi

    Timp Temperatura Precipitaţii Vânt Presiune Umiditate
    00:00 +16°C° 0 mm 1 m/s 621 mmHg 83%
    01:00 +16°C° 0 mm 1 m/s 620 mmHg 84%
    02:00 +15°C° 0 mm 1 m/s 620 mmHg 86%
    03:00 +15°C° 0 mm 1 m/s 620 mmHg 89%
    04:00 +14°C° 0 mm 1 m/s 620 mmHg 91%
    05:00 +15°C° 0 mm 1 m/s 620 mmHg 89%
    06:00 +16°C° 0 mm 1 m/s 621 mmHg 87%
    07:00 +16°C° 0 mm 1 m/s 622 mmHg 86%
    08:00 +19°C° 0 mm 1 m/s 622 mmHg 78%
    09:00 +21°C° 0 mm 1 m/s 623 mmHg 71%
    10:00 +23°C° 0 mm 1 m/s 623 mmHg 64%
    11:00 +24°C° 0,2 mm 2 m/s 623 mmHg 59%
    12:00 +25°C° 0,2 mm 2 m/s 623 mmHg 54%
    13:00 +26°C° 0,2 mm 3 m/s 622 mmHg 50%
    14:00 +25°C° 0,2 mm 3 m/s 622 mmHg 53%
    15:00 +25°C° 0,2 mm 2 m/s 622 mmHg 56%
    16:00 +24°C° 0,2 mm 2 m/s 621 mmHg 60%
    17:00 +21°C° 0,4 mm 2 m/s 621 mmHg 68%
    18:00 +19°C° 0,4 mm 2 m/s 621 mmHg 77%
    19:00 +18°C° 0,4 mm 1 m/s 621 mmHg 86%
    20:00 +18°C° 0,2 mm 1 m/s 621 mmHg 88%
    21:00 +17°C° 0,2 mm 2 m/s 621 mmHg 90%
    22:00 +16°C° 0,2 mm 2 m/s 622 mmHg 92%
    23:00 +16°C° 0 mm 1 m/s 621 mmHg 93%

    26 Ianuarie, Vineri

    Timp Temperatura Precipitaţii Vânt Presiune Umiditate
    00:00 +16°C° 0 mm 1 m/s 621 mmHg 94%
    01:00 +15°C° 0 mm 1 m/s 620 mmHg 95%
    02:00 +15°C° 0 mm 1 m/s 620 mmHg 95%
    03:00 +15°C° 0 mm 1 m/s 620 mmHg 95%
    04:00 +15°C° 0 mm 1 m/s 620 mmHg 95%
    05:00 +15°C° 0,1 mm 1 m/s 621 mmHg 94%
    06:00 +16°C° 0,1 mm 1 m/s 621 mmHg 93%
    07:00 +16°C° 0,1 mm 1 m/s 622 mmHg 92%
    08:00 +18°C° 0,2 mm 1 m/s 622 mmHg 88%
    09:00 +20°C° 0,2 mm 1 m/s 622 mmHg 84%
    10:00 +21°C° 0,2 mm 1 m/s 623 mmHg 79%
    11:00 +22°C° 0,4 mm 1 m/s 622 mmHg 75%
    12:00 +24°C° 0,4 mm 1 m/s 622 mmHg 70%
    13:00 +25°C° 0,4 mm 1 m/s 622 mmHg 65%
    14:00 +24°C° 0,8 mm 1 m/s 621 mmHg 68%
    15:00 +24°C° 0,8 mm 1 m/s 621 mmHg 71%
    16:00 +24°C° 0,8 mm 1 m/s 620 mmHg 74%
    17:00 +22°C° 1,4 mm 1 m/s 620 mmHg 80%
    18:00 +20°C° 1,4 mm 1 m/s 620 mmHg 86%
    19:00 +19°C° 1,4 mm 1 m/s 620 mmHg 92%
    20:00 +18°C° 0,3 mm 1 m/s 620 mmHg 92%
    21:00 +18°C° 0,3 mm 1 m/s 621 mmHg 93%
    22:00 +16°C° 0,3 mm 1 m/s 621 mmHg 93%
    23:00 +16°C° 0 mm 1 m/s 621 mmHg 94%
    Arată mai mult